Regional Weather Roundup
Issued by NWS Newport/Morehead, NC

Current Version | Previous Version | Text Only | Print | Product List | Glossary On
Versions: 1 2 3 4 5 6 7 8 9 10 11 12 13 14 15 16 17 18 19 20 21 22 23 24 25 26 27 28 29 30 31 32 33 34 35 36 37 38 39 40 41 42 43 44 45 46 47 48 49 50
178 ASUS42 KMHX 200013 RWRMHX WEATHER ROUNDUP FOR EASTERN NORTH CAROLINA NATIONAL WEATHER SERVICE NEWPORT/MOREHEAD CITY NC 700 PM EST THU JAN 19 2017 NOTE: "FAIR" INDICATES FEW OR NO CLOUDS BELOW 12,000 FEET WITH NO SIGNIFICANT WEATHER AND/OR OBSTRUCTIONS TO VISIBILITY NCZ015>017-031-032-045>047-102-103-200100- NORTH COAST CITY SKY/WX TMP DP RH WIND PRES REMARKS EDENTON CLEAR 46 42 86 CALM 30.05R ELIZABETH CITY PTCLDY 45 41 86 E5 30.05R KITTY HAWK NOT AVBL MANTEO CLOUDY 44 43 96 S6 30.05F $$ NCZ045>047-081-094-103-104-200100- CENTRAL COAST CITY SKY/WX TMP DP RH WIND PRES REMARKS FRISCO CLEAR 47 43 86 NE5 30.05S FOG $$ NCZ095-097-098-100-101-200100- SOUTHERN COAST CITY SKY/WX TMP DP RH WIND PRES REMARKS BEAUFORT CLEAR 50 43 77 E3 30.04F CEDAR ISLAND NOT AVBL JACKSONVILLE MOCLDY 49 46 90 SE5 30.03S PINEY ISLAND CLEAR N/A N/A N/A E5 30.04S WILMINGTON PTCLDY 49 46 90 CALM 30.03S $$ NCZ011>013-027>030-043-044-078>080-089-090>093-098-200100- COASTAL PLAIN CITY SKY/WX TMP DP RH WIND PRES REMARKS AHOSKIE N/A 44 40 84 CALM 30.04S CLINTON CLOUDY 51 46 83 CALM 30.02S ELIZABETHTOWN PTCLDY 52 45 76 CALM 30.01S GOLDSBORO CLOUDY 50 47 88 E5 30.00S GREENVILLE PTCLDY 45 43 93 CALM 30.05S FOG HAVELOCK CLEAR 46 43 89 SE5 30.05S KENANSVILLE MOCLDY 46 45 93 CALM 30.03S KINSTON MOCLDY 46 43 87 CALM 30.04R NEW BERN CLEAR 50 43 77 SE5 30.05R RICHLANDS MOCLDY 49 45 86 CALM 30.03F ROCKY MOUNT CLOUDY 44 43 96 CALM 30.02F WASHINGTON CLOUDY 46 42 84 CALM N/A WHITEVILLE PTCLDY 54 46 72 SE5 30.01S $$ AMZ130-135-150-152-154-156-158-170-250-252-270-ANZ085-086-088-633-658-670-200100- MARINE OBSERVATIONS STATION/POSITION TIME TEMP WIND PRES WAVE SWELL AIR SEA DIR/SP/G HT/PER HT/PER (UTC) (F) (DEG/KT/KT) (MB) (FT/S) (FT/S) CHESAPEAKE LIGHT NOT AVBL 64 E VA BEACH 2350 48 56 300/ 6/ 8 1017.7 5/10 5/10 DUCK 2342 45 45 70/ 9/ 9 1017.0 2 E DUCK 2330 45 N/A 4/11 2/11 OREGON INLET 2342 45 49 80/ 2/ 3 1017.5 13E OREGON INLT NOT AVBL HATTERAS CG 2342 47 55 70/ 2/ 4 1017.2 DIAMOND BUOY 2350 54 77 20/ 6/ 10 1017.7 5/10 5/10 CAPE LOOKOUT 0000 55 40/ 4/ 6 1016.9 BEAUFORT LAB 2342 51 50 60/ 3/ 5 1016.4 30 SE NEW RVR IN 2308 57 62 100/ 4/ 6 1017.4 30 SE NEW RVR IN 2343 62 N/A 3/10 27 SE WRIGHTSVLE 2308 59 70 70/ 6/ 10 1016.6 5 SE WRIGHTSVLE NOT AVBL 225 S CAPE HAT 2350 67 71 360/ 4/ 8 1016.4 6/10 7/10 41 SE CHARLESTON 2250 68 72 70/ 14/ 16 1015.0 4/ 5 2/ 9 $$

USA.gov is the U.S. government's official web portal to all federal, state and local government web resources and services.